Location: Clyde
(45.1830°S, 169.3170°E)
Time: 10:01:11
(UTC+12:00)

Cosmos 2292 Rocket - Pass Details

Date: 14 May 2021
Orbit: 379 x 1447 km, 83.0° (Epoch: 15 June)

Event Time Altitude Azimuth Distance (km) Brightness Sun altitude
Rises 19:21:43 0° 355° (N) 2,659 7.0 -20.5°
Reaches altitude 10° 19:23:35 10° 356° (N) 1,888 6.2 -20.9°
Maximum altitude 19:27:44 85° 82° (E) 710 3.7 -21.6°
Drops below altitude 10° 19:33:25 10° 171° (S) 2,556 6.6 -22.6°
Sets 19:36:17 0° 171° (S) 3,691 7.4 -23.1°
